Aberdeen / Amory, MS

7:04 AM CDT on April 27, 2017 (GMT -0500)
Aberdeen / Amory

Weather History for KM40 - January, 2012

Change the Weather History Date:

Wednesday, January 25, 2012

  Actual Average (KCBM) Record (KCBM)
Temperature  
Mean Temperature 58 °F -  
Max Temperature 73 °F 53 °F 73 °F (1999)
Min Temperature 44 °F 34 °F 18 °F (2014)
Degree Days  
Heating Degree Days 6    
Growing Degree Days 8 (Base 50)    
Moisture  
Dew Point 46 °F    
Average Humidity 57    
Maximum Humidity 72    
Minimum Humidity 51    
Precipitation  
Precipitation 0.21 in - - ()
Sea Level Pressure  
Sea Level Pressure 30.05 in    
Wind  
Wind Speed - ()    
Max Wind Speed -    
Max Gust Speed -    
Visibility 9.7 miles    
Events Rain    
Averages and records for this station are not official NWS values.
T = Trace of Precipitation, MM = Missing Value Source: Averaged Metar Reports

Daily Weather History Graph

Daily Weather History Graph

Search for Another Location

Airport or City:

Trip Planner

Search our weather history database for the weather conditions in past years. The results will help you decide how hot, cold, wet, or windy it might be!

Date:

Astronomy

Jan. 25, 2012 Rise Set
Actual Time 6:55 AM CST 5:17 PM CST
Civil Twilight 6:28 AM CST 5:44 PM CST
Nautical Twilight 5:58 AM CST 6:14 PM CST
Astronomical Twilight 5:28 AM CST 6:43 PM CST
Moon 8:04 AM CST (1/25) 7:59 PM CST (1/25)
Length of Visible Light 11h 15m
Length of Day
10h 22m
Waxing Crescent, 7% of the Moon is Illuminated
Jan 25
Waxing Crescent
Jan 30
First Quarter
Feb 7
Full
Feb 14
Last Quarter
Feb 21
New

Hourly Weather History & Observations

Time (CST) Temp. Dew Point Humidity Pressure Visibility Wind Dir Wind Speed Gust Speed Precip Events Conditions
12:15 AM 44.6 °F 32.0 °F 61% 30.20 in 10.0 mi North - - N/A   Clear
12:35 AM 44.6 °F 30.2 °F 57% 30.20 in 10.0 mi North - - N/A   Clear
12:55 AM 44.6 °F 30.2 °F 57% 30.19 in 10.0 mi North - - N/A   Clear
1:15 AM 44.6 °F 32.0 °F 61% 30.19 in 10.0 mi North - - N/A   Clear
1:35 AM 44.6 °F 32.0 °F 61% 30.17 in 10.0 mi North - - N/A   Clear
1:55 AM 46.4 °F 32.0 °F 57% 30.13 in 10.0 mi North - - N/A   Clear
2:15 AM 50.0 °F 33.8 °F 54% 30.17 in 10.0 mi North - - N/A   Clear
2:35 AM 50.0 °F 33.8 °F 54% 30.18 in 10.0 mi North - - N/A   Clear
2:55 AM 50.0 °F 33.8 °F 54% 30.16 in 10.0 mi North - - N/A   Clear
3:15 AM 50.0 °F 33.8 °F 54% 30.17 in 10.0 mi North - - N/A   Scattered Clouds
3:35 AM 50.0 °F 33.8 °F 54% 30.17 in 10.0 mi North - - N/A   Scattered Clouds
3:55 AM 50.0 °F 33.8 °F 54% 30.16 in 10.0 mi North - - N/A   Mostly Cloudy
4:15 AM 50.0 °F 33.8 °F 54% 30.15 in 10.0 mi North - - N/A Rain Light Rain
5:15 AM 50.0 °F 33.8 °F 54% 30.16 in 10.0 mi North - - N/A   Overcast
5:35 AM 50.0 °F 33.8 °F 54% 30.14 in 10.0 mi North - - N/A   Overcast
5:55 AM 50.0 °F 33.8 °F 54% 30.14 in 10.0 mi North - - N/A   Scattered Clouds
6:15 AM 51.8 °F 35.6 °F 54% 30.13 in 10.0 mi North - - N/A   Mostly Cloudy
6:35 AM 51.8 °F 35.6 °F 54% 30.13 in 10.0 mi North - - N/A   Overcast
6:55 AM 51.8 °F 35.6 °F 54% 30.13 in 10.0 mi North - - N/A   Overcast
7:15 AM 53.6 °F 37.4 °F 54% 30.12 in 10.0 mi North - - N/A   Overcast
7:35 AM 53.6 °F 37.4 °F 54% 30.11 in 10.0 mi North - - N/A   Overcast
7:55 AM 53.6 °F 37.4 °F 54% 30.13 in 10.0 mi North - - N/A   Mostly Cloudy
8:15 AM 53.6 °F 37.4 °F 54% 30.13 in 10.0 mi North - - N/A   Overcast
8:35 AM 55.4 °F 39.2 °F 54% 30.13 in 10.0 mi North - - N/A   Overcast
8:55 AM 57.2 °F 39.2 °F 51% 30.13 in 10.0 mi North - - N/A   Mostly Cloudy
9:15 AM 57.2 °F 41.0 °F 55% 30.13 in 10.0 mi North - - N/A   Mostly Cloudy
9:55 AM 62.6 °F 44.6 °F 52% 30.12 in 10.0 mi North - - N/A   Scattered Clouds
10:15 AM 64.4 °F 46.4 °F 52% 30.13 in 10.0 mi North - - N/A   Mostly Cloudy
10:35 AM 64.4 °F 46.4 °F 52% 30.12 in 10.0 mi North - - N/A   Overcast
10:55 AM 64.4 °F 48.2 °F 56% 30.11 in 10.0 mi North - - N/A   Overcast
11:15 AM 66.2 °F 50.0 °F 56% 30.10 in 10.0 mi North - - N/A   Scattered Clouds
11:35 AM 68.0 °F 51.8 °F 56% 30.09 in 10.0 mi North - - N/A   Clear
11:55 AM 69.8 °F 53.6 °F 56% 30.07 in 10.0 mi North - - N/A   Clear
12:15 PM 69.8 °F 53.6 °F 56% 30.05 in 10.0 mi North - - N/A   Clear
12:35 PM 71.6 °F 53.6 °F 53% 30.05 in 10.0 mi North - - N/A   Clear
1:15 PM 71.6 °F 55.4 °F 57% 30.02 in 10.0 mi North - - N/A   Clear
1:35 PM 73.4 °F 55.4 °F 53% 30.02 in 10.0 mi North - - N/A   Clear
1:55 PM 73.4 °F 55.4 °F 53% 30.01 in 10.0 mi North - - N/A   Clear
2:15 PM 73.4 °F 55.4 °F 53% 30.01 in 10.0 mi North - - N/A   Clear
2:35 PM 71.6 °F 55.4 °F 57% 30.01 in 10.0 mi North - - N/A   Scattered Clouds
2:55 PM 71.6 °F 53.6 °F 53% 30.01 in 10.0 mi North - - N/A   Mostly Cloudy
3:15 PM 71.6 °F 53.6 °F 53% 30.01 in 10.0 mi North - - N/A   Mostly Cloudy
3:35 PM 69.8 °F 53.6 °F 56% 30.00 in 10.0 mi North - - N/A   Mostly Cloudy
4:15 PM 69.8 °F 53.6 °F 56% 29.98 in 10.0 mi North - - N/A   Partly Cloudy
4:35 PM 69.8 °F 53.6 °F 56% 29.97 in 10.0 mi North - - N/A   Clear
4:55 PM 69.8 °F 51.8 °F 53% 29.97 in 10.0 mi North - - N/A   Partly Cloudy
5:15 PM 68.0 °F 51.8 °F 56% 29.96 in 10.0 mi North - - N/A   Partly Cloudy
5:35 PM 68.0 °F 51.8 °F 56% 29.96 in 10.0 mi North - - N/A   Scattered Clouds
5:55 PM 66.2 °F 51.8 °F 60% 29.96 in 10.0 mi North - - N/A   Scattered Clouds
6:15 PM 66.2 °F 51.8 °F 60% 29.96 in 10.0 mi North - - N/A   Scattered Clouds
6:35 PM 66.2 °F 51.8 °F 60% 29.96 in 10.0 mi North - - N/A   Mostly Cloudy
6:55 PM 66.2 °F 51.8 °F 60% 29.96 in 10.0 mi North - - N/A   Scattered Clouds
7:15 PM 66.2 °F 53.6 °F 64% 29.96 in 10.0 mi North - - N/A   Partly Cloudy
7:35 PM 64.4 °F 53.6 °F 68% 29.95 in 10.0 mi North - - N/A   Partly Cloudy
7:55 PM 64.4 °F 53.6 °F 68% 29.95 in 10.0 mi North - - N/A   Clear
8:15 PM 64.4 °F 53.6 °F 68% 29.94 in 10.0 mi North - - N/A   Clear
8:35 PM 66.2 °F 53.6 °F 64% 29.94 in 10.0 mi North - - N/A   Clear
8:55 PM 66.2 °F 55.4 °F 68% 29.93 in 10.0 mi North - - N/A   Clear
9:15 PM 68.0 °F 53.6 °F 60% 29.94 in 10.0 mi North - - N/A   Scattered Clouds
9:35 PM 68.0 °F 55.4 °F 64% 29.94 in 10.0 mi North - - N/A   Mostly Cloudy
9:55 PM 68.0 °F 55.4 °F 64% 29.94 in 10.0 mi North - - N/A   Overcast
10:15 PM 68.0 °F 55.4 °F 64% 29.93 in 10.0 mi North - - N/A   Mostly Cloudy
10:35 PM 68.0 °F 55.4 °F 64% 29.91 in 10.0 mi North - - N/A   Clear
10:55 PM 68.0 °F 55.4 °F 64% 29.91 in 10.0 mi North - - N/A   Scattered Clouds
11:15 PM 66.2 °F 53.6 °F 64% 29.91 in 5.0 mi North - - N/A Rain Light Rain
11:35 PM 64.4 °F 50.0 °F 59% 29.93 in 1.2 mi North - - 0.20 in Rain Rain
11:55 PM 62.6 °F 53.6 °F 72% 29.92 in 5.0 mi North - - 0.21 in   Light Drizzle